Погода в Солёноозёрном

Россия / Республика Хакасия     54°43′47″N   89°52′45″E
темп.,
°C
ветер,
м/с
пор.,
м/с
влажн.,
%
обл.,
%
осадки,
мм/ч
давл.,
гПа
погр.,
м
20 апреля, вт
вт2001:00−8зсз695919 0.0 10221011
04:00−9зсз575729 0.0 1023924
07:00−9зсз47545 0.0 10231121
10:00−7зсз673999 0.0 10241526
13:00−4зсз6732100 0.0 10222036
16:00−3зсз6637100 0.1 10232163
19:00−4зсз674588 0.1 10241423
22:00−6зсз58625 0.0 1026750
21 апреля, ср
ср2101:00−7зсз37641 0.0 1026560
04:00−8зюз11623 0.0 102750
07:00−8юз125613 0.0 1027216
10:00−5ю2345100 0.0 1027955
13:00−2юв1234100 0.0 10251518
16:000ссв2329100 0.0 10241867
19:00−1всв5438100 0.0 10261590
22:00−4всв485399 0.0 1028330
22 апреля, чт
чт2201:00−4ссв366121 0.0 1029387
04:00−5с247112 0.0 1031182
07:00−4с356482 0.0 1033344
10:00−1ссв5545100 0.1 10341674
13:00+1ссв5536100 0.1 10352120
16:00+1ссв6643100 0.0 10361804
19:000ссв5655100 0.2 10391169
22:00−2ссв387789 0.0 1042321
23 апреля, пт
пт2301:00−3с268078 0.0 1042178
04:00−3с278448 0.0 1042237
07:00−2ссв4107122 0.0 1042507
10:00+2св79495 0.0 10421168
13:00+4всв894193 0.0 10401949
16:00+5св8941100 0.0 10382000
19:00+4св7949100 0.0 10381272
22:00+2ссв61164100 0.0 1038764
24 апреля, сб
сб2401:000ссв51170100 0.0 1037657
04:00−1с4880100 0.1 1035749
07:00−1ссз2693100 1.2 1034466
10:000с3483100 0.6 1033693
13:00+2с2371100 0.9 1032957
16:00+4с2365100 0.3 1030983
19:00+3ссз226498 0.4 1030856
22:00+1сз228241 0.0 103125